Wind_Speed
9 9 9 8 8 8 8 8 8 8 8 9 9 9 9 9 10 10 10 9 7 5 4 3 2 1 1 0 1 2 3 3 4 2 1 2 2 2 3 4 5 4 3 2 3 5 7 6 5 6 6 6 6 5 5 6 6 4 3 4 2 0 2 2 1 3 5 5 6 8 7 6 5 4 5 4 4 9 8 6 6 4 5 7 10 12 10 7
9 9 9 8 8 8 8 8 8 8 9 9 10 10 10 10 10 10 9 8 6 5 4 3 2 1 0 1 1 3 3 4 4 2 2 2 3 4 5 6 5 4 4 3 2 5 6 4 3 5 4 4 4 4 4 5 6 4 3 4 0 3 2 3 3 4 5 7 8 8 5 7 8 7 6 2 3 11 9 5 7 6 7 7 8 9 7 7
9 9 9 9 8 8 8 8 9 9 9 9 10 10 9 10 9 8 7 7 6 5 4 3 2 1 0 1 2 4 4 3 3 3 4 2 4 8 8 8 7 6 5 4 3 3 4 4 3 4 4 3 3 4 4 5 4 3 4 4 2 4 4 8 9 8 7 12 11 7 6 9 8 6 6 2 2 7 7 8 8 9 10 9 8 7 6 6
9 9 9 9 9 9 8 8 8 9 9 9 10 10 9 9 9 7 7 6 5 5 4 3 2 1 0 2 3 4 5 2 2 2 3 3 9 11 11 10 8 7 7 4 3 3 4 4 4 3 3 2 3 5 3 5 3 2 3 4 4 3 4 5 8 9 9 12 11 7 6 6 6 6 5 2 1 2 8 14 13 12 13 12 10 8 7 7
9 9 9 9 9 9 9 9 9 9 9 9 9 9 9 9 8 7 7 6 6 5 4 2 2 1 1 2 3 4 3 2 1 1 3 8 12 12 11 9 7 6 7 4 3 5 5 5 4 3 2 0 3 4 2 4 4 2 2 4 3 4 3 2 5 6 7 10 10 7 5 5 6 5 5 4 3 4 8 13 14 13 12 11 10 9 8 8
9 9 9 9 9 9 9 9 9 9 9 9 9 9 9 9 8 8 7 6 6 5 3 2 2 1 1 2 3 3 1 1 3 4 7 10 11 11 9 6 4 5 5 2 5 6 4 4 3 3 2 1 3 4 2 4 5 2 0 3 5 5 4 4 4 5 5 7 7 5 6 7 5 3 6 8 8 7 6 10 11 12 11 9 9 9 9 9
10 10 9 9 9 9 9 9 9 10 9 9 9 9 9 9 8 8 7 6 6 5 4 3 3 2 1 2 2 2 1 3 6 7 8 9 9 8 6 2 1 4 3 1 4 5 3 3 3 4 3 3 3 3 3 3 4 3 1 1 4 4 6 5 3 4 4 5 5 4 6 5 4 3 5 9 11 10 9 11 12 12 11 9 9 10 10 9
10 10 10 10 10 9 9 9 9 9 9 9 9 9 9 8 8 7 7 6 6 5 5 4 3 3 2 2 2 1 1 4 8 8 8 8 6 5 4 3 3 3 1 2 3 4 3 4 4 3 3 3 3 3 3 4 4 4 1 1 1 1 4 4 4 4 4 4 4 3 4 6 6 4 5 9 11 11 13 13 12 11 10 10 10 11 11 10
11 11 11 11 10 10 10 9 9 9 9 9 9 9 8 8 7 7 7 6 6 6 6 5 4 3 2 1 1 1 1 6 8 8 8 6 5 5 5 5 4 3 2 5 3 3 3 3 3 3 3 3 4 4 4 4 2 2 1 1 1 2 3 6 7 6 6 5 5 4 5 7 7 6 7 10 13 14 14 14 13 12 11 11 11 12 12 11
12 11 11 11 10 10 10 10 10 9 9 9 9 8 8 8 7 7 7 7 6 6 6 6 5 3 2 1 1 0 3 7 7 7 6 6 6 5 5 4 2 3 3 6 5 3 3 2 1 2 2 2 4 3 3 3 2 1 1 3 4 7 8 8 9 9 8 7 8 6 4 7 5 3 5 9 14 17 16 15 14 13 13 13 13 14 13 11
13 12 11 11 11 10 10 10 10 10 9 9 9 9 8 8 8 8 8 7 7 7 7 6 4 3 3 2 2 1 4 6 5 5 5 5 5 4 3 3 3 3 3 5 5 3 2 1 2 1 1 3 3 2 4 4 3 1 2 5 8 10 10 10 10 11 8 5 9 9 4 5 2 4 8 11 15 17 17 15 14 14 14 15 15 16 15 13
14 13 12 12 11 10 10 10 10 10 9 9 9 9 9 9 8 8 8 8 8 8 7 6 5 4 3 3 4 3 4 5 4 3 3 3 4 4 4 3 3 3 3 3 3 3 2 1 2 2 2 3 2 2 3 2 2 1 1 2 7 7 6 12 13 12 9 3 8 8 2 5 4 7 11 11 16 17 16 15 15 15 15 16 17 17 16 14
16 15 14 12 11 11 10 10 10 10 9 9 9 9 9 9 9 9 9 8 8 8 7 6 5 4 4 5 4 3 5 6 6 5 5 5 5 5 4 4 3 4 4 3 2 3 4 2 2 2 3 2 1 2 1 0 2 1 1 2 3 7 4 10 11 11 8 4 8 8 2 6 6 10 9 10 17 17 16 16 16 16 16 17 18 18 18 15
17 16 15 14 13 12 11 10 10 10 9 9 9 9 10 9 9 9 9 8 8 8 7 6 5 4 4 4 3 4 7 8 9 8 7 7 7 7 6 5 4 4 4 3 2 3 4 4 3 2 2 2 2 2 1 1 2 1 1 1 1 1 4 7 3 11 8 4 9 8 1 6 7 8 9 13 17 17 17 17 17 18 17 18 19 20 19 17
18 17 16 15 14 13 12 11 10 10 10 10 10 10 10 10 10 9 9 8 8 7 6 5 4 4 4 5 5 6 8 10 11 10 8 8 8 8 7 6 5 5 5 4 4 3 4 4 3 2 3 3 3 2 3 3 1 1 1 3 2 2 5 7 1 12 8 3 7 6 1 7 8 7 11 14 17 17 18 18 19 20 20 20 21 21 20 19
20 19 18 17 16 15 14 13 11 11 10 10 10 11 11 11 10 10 10 9 7 6 5 5 5 4 3 4 6 7 10 12 10 9 10 9 8 8 6 6 5 5 5 4 4 4 4 5 4 4 4 3 3 4 4 4 4 2 2 3 2 3 4 5 1 7 7 4 4 4 2 4 5 7 12 14 18 19 18 19 21 22 22 23 23 23 23 22
22 21 20 19 19 17 16 14 13 12 11 11 11 11 11 11 11 10 10 9 7 6 5 4 4 3 4 6 7 9 13 12 9 8 9 9 10 8 6 5 5 5 4 5 5 5 5 4 4 3 2 1 2 5 5 3 4 3 0 2 4 3 2 2 4 5 7 6 4 4 4 6 6 6 13 16 19 20 20 22 24 24 25 25 25 25 25 25
23 23 22 21 21 20 18 16 15 14 12 12 11 11 11 11 11 10 10 9 7 5 4 6 5 1 6 11 11 10 11 10 9 8 8 9 9 7 6 5 4 5 5 5 5 5 5 3 3 1 2 2 1 5 3 3 4 2 3 2 4 2 2 4 3 3 7 5 4 4 5 10 10 7 14 19 20 23 25 25 26 27 28 27 27 27 28 28
23 24 24 23 23 22 20 18 17 16 14 13 12 12 11 10 9 9 9 9 9 6 3 9 11 4 2 9 13 11 8 8 8 9 10 10 9 9 8 5 5 7 6 3 3 6 6 3 4 2 1 3 4 6 7 8 7 6 5 4 3 3 4 4 4 5 8 4 5 7 7 10 11 9 13 19 22 25 26 24 23 26 28 28 29 30 30 30
22 23 24 24 24 24 22 20 19 17 16 14 13 11 9 7 4 5 10 13 16 14 8 8 12 10 3 4 10 11 9 9 9 10 11 11 11 10 9 8 7 5 4 4 3 5 7 3 2 4 6 7 8 9 9 7 5 4 2 2 4 4 5 4 3 5 6 4 5 9 8 9 10 9 12 19 21 21 23 22 23 27 29 31 31 32 32 31
19 21 24 24 24 24 23 21 20 19 17 15 15 12 8 7 4 2 8 12 16 19 18 12 10 12 10 6 8 10 10 10 10 11 11 12 12 10 10 9 6 3 4 5 4 3 5 4 5 8 9 8 9 9 8 7 6 5 4 3 4 3 5 5 2 3 3 3 5 6 6 9 10 9 12 13 13 17 25 26 27 30 31 32 33 32 31 30
18 19 21 23 24 24 24 22 21 20 18 17 18 14 10 9 8 5 4 7 12 15 18 19 17 16 14 12 11 11 11 8 9 12 13 15 15 10 10 9 4 3 4 3 4 2 3 3 9 12 9 7 7 6 6 6 6 6 3 2 3 3 4 5 3 2 1 3 5 5 5 8 10 9 11 13 14 21 32 34 34 33 32 33 34 33 32 31
17 18 19 21 22 23 24 23 22 22 21 20 19 17 12 8 8 8 5 6 10 14 17 19 22 23 20 15 14 17 15 10 11 15 16 18 17 14 13 10 5 4 3 4 5 4 3 5 11 15 9 6 7 6 5 3 2 4 3 3 3 4 2 3 4 4 2 2 3 5 6 7 9 8 10 19 23 23 29 34 35 33 33 36 37 37 36 36
17 17 19 20 20 22 23 22 23 24 22 21 20 18 15 9 7 6 6 5 7 12 19 20 21 27 27 21 18 21 20 14 13 16 19 21 18 13 12 11 7 4 4 7 9 7 7 7 8 9 9 7 6 6 5 5 2 3 4 5 4 3 5 6 4 3 3 4 3 3 6 6 7 8 9 14 15 17 23 26 27 30 32 35 35 37 38 38
18 17 18 19 19 20 20 21 24 24 22 22 20 18 16 11 7 3 3 4 5 7 12 17 18 23 28 25 21 20 17 15 16 17 20 24 21 12 9 12 8 4 7 8 8 7 9 10 6 3 6 8 7 6 6 7 4 4 4 7 7 7 8 7 2 3 4 5 3 2 4 6 4 6 8 6 4 8 14 15 22 30 31 32 33 36 39 38
20 19 18 19 19 17 17 19 22 22 22 23 19 16 15 11 7 3 1 3 5 3 4 11 12 13 20 24 23 18 8 11 16 19 20 23 23 14 7 8 6 5 8 6 4 4 5 10 9 5 6 8 7 7 5 7 5 3 4 6 7 8 8 7 3 1 1 4 3 3 1 7 6 6 9 8 7 11 10 9 18 27 30 33 36 38 39 38
22 21 19 20 20 19 19 19 20 21 21 19 17 17 15 12 9 5 4 4 5 6 8 9 10 10 14 21 28 18 3 6 14 18 23 23 24 18 8 6 5 5 6 4 3 3 3 8 9 7 7 6 7 6 6 7 7 4 6 5 5 5 6 5 2 2 3 2 4 3 2 5 9 7 6 8 10 13 12 10 14 23 28 32 34 36 38 39
25 23 21 22 22 22 23 20 20 22 19 12 13 18 16 14 11 7 5 2 3 6 6 7 10 12 13 21 32 19 6 12 11 14 27 27 23 16 8 8 7 6 8 7 5 4 2 8 9 10 7 5 6 5 6 9 6 5 5 5 6 6 5 3 4 1 1 2 4 3 2 3 9 6 3 5 7 10 13 12 13 20 27 28 30 33 35 37
28 25 23 23 22 23 23 22 22 20 16 10 11 17 18 16 11 6 3 2 3 4 4 8 9 10 15 21 25 16 9 7 3 13 25 24 21 12 4 9 8 6 8 6 6 4 1 6 7 8 7 6 5 1 3 7 5 4 4 6 5 4 4 5 4 2 3 2 6 5 4 4 7 4 2 3 4 8 11 10 12 18 24 27 29 31 32 33
32 28 26 23 23 25 25 27 26 18 16 14 13 20 22 16 8 4 2 3 2 1 4 8 9 12 19 16 9 7 6 2 5 16 16 12 15 8 3 8 5 4 2 3 1 2 1 2 1 2 4 5 6 3 3 2 6 7 6 6 6 5 5 4 3 4 2 4 6 9 10 7 6 4 4 4 5 7 7 7 9 12 18 26 30 31 32 32
35 32 29 27 29 30 28 32 30 21 19 18 18 25 22 9 3 4 6 1 2 2 6 4 4 10 18 14 7 6 4 2 7 14 8 4 8 5 4 5 1 2 2 4 3 4 4 1 1 1 5 6 7 4 5 4 5 8 5 4 3 4 4 5 4 4 0 5 6 10 10 8 7 6 3 5 5 5 5 6 8 9 15 25 30 32 33 33
38 36 33 32 33 32 32 33 27 23 23 20 22 27 18 4 1 5 5 2 1 4 6 4 5 8 13 12 10 10 6 3 7 10 6 4 5 6 6 6 5 3 3 5 2 3 2 3 2 1 4 7 7 4 3 5 3 5 5 6 3 2 3 3 2 0 3 6 5 5 6 5 9 8 8 11 11 10 8 7 9 12 17 23 29 32 34 33
38 39 36 35 36 35 36 32 25 26 26 23 23 19 8 3 6 9 8 4 2 3 4 5 7 9 12 10 6 7 5 2 7 7 4 4 5 7 5 4 6 3 2 6 4 2 3 5 1 2 3 8 9 6 3 2 1 5 6 6 5 2 1 3 3 2 4 5 5 1 4 3 6 6 11 15 15 17 16 13 12 14 18 23 27 31 32 33
35 39 39 40 39 37 36 31 28 29 27 26 22 11 6 7 9 11 13 10 3 2 3 5 7 9 10 6 4 7 4 1 7 6 3 5 5 6 4 5 8 3 3 4 3 6 5 5 5 7 4 10 13 9 7 5 5 5 5 6 5 5 4 4 4 3 4 3 4 1 3 4 3 3 7 8 9 10 9 10 10 12 17 21 25 28 31 33
34 39 41 42 41 39 37 33 31 30 29 26 15 7 9 10 8 10 13 10 4 3 2 5 9 7 6 3 2 7 4 2 6 5 3 6 5 6 7 8 12 7 4 4 2 4 6 6 7 7 5 12 13 7 7 8 3 3 3 5 3 5 5 3 3 4 2 2 3 2 3 5 5 5 6 4 4 3 1 5 9 12 16 20 24 28 30 32
35 42 42 44 46 44 40 37 35 35 36 26 9 7 11 9 9 9 6 7 7 5 6 5 5 4 5 3 3 6 3 2 6 5 3 5 4 6 7 6 12 12 9 7 3 3 4 4 3 2 3 6 8 5 7 7 4 1 3 4 3 4 5 2 3 1 2 2 4 3 5 5 3 7 8 6 4 3 3 5 10 13 17 21 25 28 31 32
33 44 46 49 52 48 44 41 37 40 40 25 10 10 9 10 14 9 3 6 10 10 8 4 3 5 6 4 4 7 3 2 6 5 3 3 3 8 8 5 11 17 14 9 3 2 5 2 3 2 1 3 2 3 3 3 6 5 4 5 2 2 2 2 1 3 2 4 4 4 7 5 2 6 4 3 4 7 8 7 7 10 16 22 26 29 31 32
28 39 47 51 54 50 47 43 40 45 37 16 10 12 8 13 21 17 10 6 9 11 7 6 6 6 7 7 5 8 6 4 7 6 4 4 5 9 12 7 11 21 21 12 4 2 4 2 3 1 2 2 2 4 3 3 4 5 4 5 4 1 1 2 2 2 1 4 5 3 7 6 6 5 1 3 8 11 10 8 6 10 18 24 27 30 31 31
23 28 36 47 54 52 48 45 48 46 27 8 9 12 10 17 27 26 20 10 4 9 9 10 8 5 7 9 7 8 9 7 9 7 4 5 5 8 15 11 10 18 23 17 6 2 3 3 3 1 0 1 2 2 4 2 0 2 2 3 2 2 4 4 3 3 3 3 4 3 3 4 5 7 7 9 12 13 12 10 9 14 23 28 29 31 32 33
19 17 22 38 49 50 50 50 47 33 13 7 12 13 12 16 21 25 26 17 6 7 10 9 9 6 7 9 9 9 8 6 9 8 5 7 5 5 11 12 6 12 21 19 9 2 2 2 3 2 2 1 2 4 8 11 7 3 4 5 3 1 2 1 2 3 4 3 3 4 6 4 4 5 8 11 12 12 13 11 11 19 27 30 31 33 33 35
17 9 14 29 37 44 51 43 28 14 5 8 13 13 13 10 8 15 25 23 12 9 9 6 8 9 7 9 9 9 8 6 8 8 4 7 7 3 9 15 12 11 14 12 8 5 3 3 3 2 1 3 6 6 7 9 9 7 7 8 8 5 4 1 4 2 3 3 4 3 8 8 4 3 6 9 9 11 15 15 14 20 28 31 33 34 34 35
16 6 11 21 26 41 47 24 9 10 7 10 15 12 8 5 4 7 15 20 17 13 10 5 7 10 7 7 8 8 7 6 8 7 5 8 9 5 11 21 22 20 15 10 10 9 4 3 3 3 4 5 6 5 2 2 3 4 3 5 6 6 6 5 6 3 2 4 3 1 6 8 2 2 4 6 8 11 16 18 16 21 28 31 33 34 34 34
15 11 12 14 21 40 38 12 7 10 4 11 17 11 5 4 6 8 8 12 14 12 10 7 5 8 7 5 8 9 9 7 10 12 8 8 9 8 14 24 24 20 14 7 6 5 3 3 3 1 2 2 3 5 5 4 4 3 1 4 6 7 6 6 5 3 2 5 3 2 7 8 1 0 2 3 6 8 12 16 19 21 24 27 31 34 34 34
19 19 17 15 27 41 28 6 7 9 5 10 13 13 12 8 7 10 9 10 12 9 9 9 9 8 7 6 7 9 11 8 9 13 10 5 7 12 20 28 25 16 11 9 10 10 6 3 3 2 2 3 2 3 3 3 0 3 4 5 8 8 5 2 1 3 4 8 7 4 10 8 1 3 3 4 4 4 6 12 18 20 21 25 30 33 34 34
17 17 18 22 38 45 29 15 13 9 8 10 8 13 17 11 8 14 14 12 14 11 9 12 12 7 4 5 6 7 13 12 9 9 8 5 4 8 20 31 27 17 14 17 21 19 10 4 6 6 6 8 7 5 4 3 2 3 3 6 10 11 10 6 1 4 9 7 8 8 14 8 2 3 4 4 4 4 5 8 14 20 23 25 28 32 35 35
11 9 9 15 31 37 30 29 23 10 8 10 6 10 17 14 11 15 15 13 16 17 13 12 11 6 4 5 5 4 10 13 8 5 6 8 4 2 14 29 30 23 18 17 22 16 4 3 9 11 10 12 12 7 6 8 6 6 9 11 13 14 14 10 5 9 8 2 5 14 14 12 11 5 4 6 4 5 7 7 12 18 22 25 27 31 35 37
8 6 6 8 15 19 19 23 20 10 10 13 6 7 16 18 13 11 12 13 15 17 14 12 11 9 8 9 8 8 9 8 6 6 6 8 4 3 6 17 22 24 19 17 21 14 4 3 11 13 15 17 17 12 10 12 12 14 15 14 14 15 15 14 15 14 7 5 11 16 8 13 22 12 8 10 7 5 8 10 16 20 22 26 28 30 33 35
9 6 12 15 9 6 9 13 16 15 17 16 8 7 14 18 15 12 13 14 15 14 9 10 14 16 17 15 10 8 9 8 7 9 6 5 3 1 2 2 6 12 11 12 16 10 3 6 11 12 16 18 20 15 11 13 12 12 14 16 15 16 18 21 23 18 9 8 18 17 10 17 24 10 10 12 10 11 16 20 23 22 23 26 26 28 32 35
13 7 11 15 10 4 5 10 14 17 19 17 11 10 13 16 18 16 11 8 10 12 9 8 15 20 21 17 12 10 11 10 11 13 8 6 5 4 4 1 0 3 4 6 7 3 2 6 7 9 14 17 20 15 9 11 9 6 11 14 15 19 24 25 22 17 13 15 23 21 15 21 19 6 9 15 18 21 21 20 22 23 24 26 26 30 34 36
14 8 5 8 8 5 6 7 9 11 14 15 13 13 14 17 20 17 12 10 11 13 14 15 16 16 16 15 13 13 14 15 17 16 10 7 4 4 5 4 3 3 2 3 2 0 2 3 3 6 8 14 18 13 7 9 9 8 9 13 17 22 21 17 14 14 15 19 24 21 18 22 13 6 9 14 15 16 14 15 21 25 27 27 28 32 35 37
15 14 8 5 4 6 6 4 5 5 6 9 11 12 14 19 21 16 13 18 18 12 14 20 20 13 11 14 15 16 19 18 16 13 9 9 9 9 7 5 7 6 3 4 2 1 3 2 2 5 5 13 14 8 7 7 6 6 12 19 23 19 12 10 12 15 16 18 20 16 15 19 11 6 7 10 10 12 14 17 23 26 28 30 31 35 38 39
16 18 16 7 3 5 6 3 5 5 4 4 8 9 10 14 16 12 9 14 19 19 17 20 21 13 9 13 17 20 19 14 9 7 6 7 9 11 10 10 13 12 7 5 3 3 5 4 2 5 7 14 11 7 10 6 3 7 17 24 24 17 12 12 13 15 17 15 14 13 15 19 10 5 8 9 8 11 16 21 25 27 29 33 36 39 41 42
Wind_Direction
211 213 214 215 210 207 201 193 187 185 182 183 185 185 185 185 183 181 181 183 186 192 197 196 186 189 211 30 50 26 3 352 322 309 186 213 225 204 164 139 136 130 112 105 130 119 88 56 58 82 71 57 53 44 51 50 38 41 87 78 49 266 26 304 196 155 152 143 172 169 152 142 149 161 141 134 143 138 143 145 138 153 147 144 154 162 175 185
207 207 207 205 203 200 193 187 181 177 176 177 179 178 178 178 178 180 183 190 193 197 201 198 198 203 193 58 25 357 349 339 309 303 15 290 212 170 147 138 129 111 92 79 121 126 109 92 89 82 54 59 64 56 61 43 40 50 95 84 148 185 48 18 103 109 132 144 160 152 119 135 155 164 155 172 177 144 133 122 141 160 153 152 162 170 188 197
203 201 200 198 197 195 189 185 179 175 173 173 175 173 174 178 180 184 191 198 200 204 203 202 210 199 124 29 356 342 337 320 282 309 354 347 163 146 137 132 115 94 79 72 89 108 114 109 89 55 38 83 90 71 58 37 43 39 74 86 242 195 82 54 75 76 124 148 148 138 120 133 148 158 158 192 192 153 154 161 163 173 172 168 174 186 197 200
200 200 199 196 195 193 190 188 183 179 177 175 177 177 179 182 186 193 200 203 204 207 203 207 214 186 19 359 343 335 341 325 211 314 6 113 137 135 133 126 110 86 65 62 86 104 117 110 88 47 33 114 110 82 55 33 34 10 84 147 219 164 100 69 86 80 103 132 140 144 128 131 149 161 176 188 130 189 191 190 193 195 188 177 179 191 194 197
198 201 201 200 198 194 191 190 188 185 184 183 184 186 187 188 192 198 202 205 206 207 207 216 212 188 330 340 334 334 4 51 158 110 105 132 134 132 132 123 104 72 55 56 90 96 99 93 76 49 30 148 114 87 42 27 40 48 90 144 119 91 118 136 122 110 103 119 135 141 122 139 161 172 208 213 198 227 205 200 204 200 190 176 178 188 187 192
200 202 203 203 203 200 197 194 192 189 189 189 191 193 193 195 197 200 203 205 208 211 214 216 210 232 304 313 332 340 14 123 147 132 133 139 139 139 138 127 93 47 35 61 101 87 67 66 35 351 18 91 125 116 92 32 42 69 23 92 75 74 141 156 144 147 141 131 134 139 144 153 161 212 235 222 222 231 206 191 186 184 185 183 190 193 189 192
205 207 207 205 203 203 202 199 198 195 193 191 195 198 197 198 199 202 205 206 211 214 216 212 216 235 270 308 332 347 24 148 152 143 145 145 148 154 152 150 19 3 358 87 109 87 54 52 10 343 31 72 98 112 102 55 58 96 257 27 73 86 135 160 175 164 169 156 141 139 158 177 180 210 233 222 225 223 197 179 174 179 189 198 207 200 194 192
212 215 214 211 208 205 204 203 203 201 199 196 197 200 200 201 202 206 208 210 215 216 218 216 218 229 247 312 320 316 12 163 161 152 155 156 162 177 194 253 296 320 343 114 97 88 72 54 33 10 51 67 67 84 74 50 45 81 108 318 72 134 161 195 228 223 218 185 168 183 204 222 220 229 249 227 216 209 196 189 188 196 203 211 214 205 197 193
215 219 220 220 216 211 209 207 207 206 205 202 201 203 204 203 202 206 211 213 217 218 220 219 222 228 233 282 306 322 132 160 167 165 169 181 202 220 238 263 282 276 160 127 118 124 113 72 60 51 74 61 56 84 75 58 32 71 103 344 319 243 230 224 232 234 234 219 203 216 237 250 250 250 264 239 217 208 202 202 206 212 218 220 217 207 199 197
214 217 222 225 222 219 217 213 213 212 209 208 207 206 206 204 203 206 212 215 219 221 222 224 223 220 218 212 241 318 144 152 168 181 191 208 225 241 248 254 250 236 165 135 146 152 131 108 90 66 89 52 49 89 69 78 140 82 53 325 288 264 263 238 230 232 228 225 216 208 233 259 254 216 250 232 207 206 205 204 209 214 220 222 217 204 196 197
214 215 218 222 225 223 222 222 220 217 215 214 211 209 209 206 204 206 212 215 218 221 224 225 222 221 221 206 212 206 154 153 165 182 196 210 219 227 222 214 186 186 177 152 157 170 144 155 197 163 100 59 44 78 69 91 133 66 1 317 288 276 273 248 235 231 214 215 220 208 230 272 225 195 243 224 199 204 206 203 206 212 216 217 214 205 198 199
220 220 218 219 223 222 221 223 225 224 222 220 216 214 214 211 208 209 213 216 217 220 223 225 223 222 223 232 242 229 173 169 174 183 198 201 201 201 192 190 177 167 190 178 157 173 165 161 188 150 111 106 57 66 75 92 116 44 355 316 299 321 297 246 237 222 198 194 209 191 282 293 212 221 247 222 198 198 201 203 204 207 212 211 209 204 202 203
223 223 225 223 221 222 221 220 222 225 226 226 225 221 220 218 214 213 214 217 218 219 220 224 230 230 238 247 246 209 197 205 220 232 229 222 214 209 207 209 202 183 194 198 165 175 167 163 178 134 103 105 81 97 116 191 133 256 249 151 308 354 325 253 236 204 183 169 176 160 302 276 239 242 238 205 196 193 195 201 202 204 209 209 206 204 205 205
226 225 228 228 226 225 224 223 223 223 224 228 227 227 227 223 221 219 218 220 221 221 222 225 233 236 239 245 239 212 210 220 234 240 237 236 228 223 230 227 218 204 203 218 205 187 177 180 190 160 105 87 94 114 21 359 142 216 340 77 14 7 290 296 224 171 164 183 169 137 266 260 271 256 209 191 197 196 197 198 199 204 209 211 207 204 207 206
232 229 228 229 231 229 227 226 225 225 225 226 226 228 228 226 227 224 221 222 222 222 220 223 229 234 242 243 232 218 218 226 233 238 240 239 232 229 230 221 217 213 208 217 206 188 184 184 175 130 113 102 95 80 15 357 345 74 70 316 343 163 262 318 158 165 158 193 175 136 220 265 279 239 192 188 194 200 203 199 200 207 211 214 211 207 209 210
233 231 229 229 230 230 231 228 225 226 225 226 228 229 229 229 227 225 224 222 221 221 216 217 214 209 243 248 226 218 223 227 229 235 237 232 229 224 218 217 218 212 203 203 200 188 185 177 143 122 126 122 105 83 46 12 340 358 138 250 262 179 265 322 275 191 159 137 188 190 224 271 281 215 190 190 195 200 204 204 206 210 215 216 214 211 211 212
230 231 230 229 229 229 229 229 229 226 225 226 227 230 231 230 228 227 223 217 213 208 202 202 202 217 248 240 225 227 228 227 226 228 228 227 229 224 212 213 207 199 196 192 192 183 178 167 137 136 133 103 104 90 59 360 308 316 143 235 243 206 223 274 297 243 162 139 203 226 239 252 269 216 197 201 202 202 206 211 212 213 217 219 216 214 215 215
228 229 229 228 229 228 226 229 231 228 226 225 226 229 228 229 230 226 222 219 206 190 204 205 184 234 255 230 221 229 227 223 223 220 216 216 219 214 195 187 179 174 173 179 187 170 161 145 124 112 25 37 102 107 107 227 212 203 181 211 267 278 225 209 263 225 163 161 209 203 244 253 266 248 216 215 209 207 214 217 217 217 217 217 216 215 216 218
229 228 228 228 229 229 227 226 228 229 225 223 225 225 224 226 230 230 224 210 191 175 204 207 193 170 237 219 216 222 218 208 209 208 206 201 198 193 176 157 156 155 147 149 193 176 157 96 80 97 217 203 197 167 184 207 180 168 175 171 207 254 276 234 235 216 171 173 223 206 229 247 256 253 231 226 216 213 222 224 222 220 216 215 216 216 217 218
233 230 228 228 228 229 227 224 227 228 223 222 222 217 214 202 202 235 222 213 216 221 225 208 202 208 199 180 200 204 195 191 199 199 196 191 186 179 162 150 152 151 152 157 183 186 158 130 147 197 211 200 203 202 205 209 190 193 197 200 209 216 273 268 260 246 174 158 240 224 230 250 252 255 248 235 219 215 224 228 227 222 216 214 215 216 216 217
237 234 231 229 229 229 227 223 225 226 222 219 213 203 193 183 181 240 222 228 240 238 237 234 224 225 226 223 211 199 182 179 193 195 188 184 177 169 163 156 144 178 222 170 140 154 157 173 218 221 215 198 204 212 213 224 232 247 247 258 264 236 259 270 274 260 180 173 262 256 251 263 256 255 263 241 205 215 225 223 226 223 216 215 215 215 214 214
238 237 235 231 228 229 227 223 224 224 220 216 211 202 191 194 208 227 242 260 260 247 240 236 233 234 230 231 227 205 186 174 186 192 181 175 175 176 172 158 146 199 207 140 105 133 191 224 236 232 221 202 227 228 203 219 228 231 219 200 256 259 275 295 315 304 171 187 260 282 267 265 263 257 264 245 212 223 230 227 229 223 214 214 214 213 212 211
241 238 238 235 229 228 227 224 223 222 218 215 214 206 196 196 209 226 253 279 273 256 242 232 227 226 219 217 211 199 193 185 188 190 179 175 179 183 171 158 177 193 167 153 152 171 212 239 236 231 218 202 248 251 189 188 218 207 176 156 233 259 268 285 298 291 263 228 255 289 282 267 268 263 260 251 237 236 240 237 234 226 219 220 219 217 215 213
246 240 239 237 232 227 226 224 224 223 219 217 218 210 201 194 195 227 254 271 281 257 245 241 232 224 216 210 207 202 203 204 201 193 184 181 177 174 177 177 175 174 194 194 183 194 214 229 229 212 202 200 225 236 184 169 252 260 201 187 213 240 226 230 272 312 327 325 329 327 306 278 256 253 255 259 251 247 248 241 234 230 227 227 223 218 218 218
246 242 241 239 234 228 224 224 225 223 219 220 221 213 206 193 172 203 268 282 281 257 247 240 233 230 220 213 210 204 208 218 216 207 196 190 182 166 181 190 175 180 212 201 193 217 230 234 233 176 192 203 204 219 191 169 209 280 242 203 208 223 233 238 279 18 11 319 315 53 313 283 264 247 253 279 297 258 251 236 229 230 226 225 221 215 216 219
241 240 239 238 236 224 216 223 227 223 221 223 220 208 203 186 152 155 97 1 283 228 188 204 213 224 212 204 197 190 218 234 213 210 204 198 195 182 170 184 183 198 200 187 199 234 221 215 217 194 188 194 199 221 213 169 162 256 247 198 200 215 231 247 256 341 285 263 290 82 164 275 285 258 247 260 272 263 255 236 231 228 220 219 219 215 214 215
236 236 234 235 234 218 209 220 225 219 219 223 215 201 193 176 153 139 95 6 282 183 150 177 186 189 194 193 185 180 228 191 179 196 195 192 197 193 189 183 177 197 179 155 228 258 170 180 194 191 181 179 189 215 217 166 144 228 242 169 153 175 204 226 188 183 222 247 322 17 123 273 281 264 240 229 242 259 257 246 239 229 220 217 216 214 213 214
234 232 231 231 232 224 214 217 223 219 216 213 203 195 181 167 162 136 104 319 256 144 144 174 170 175 177 181 184 179 136 143 149 186 186 186 192 193 204 196 174 186 178 161 216 266 157 167 181 178 175 184 195 217 195 156 146 236 224 138 122 135 149 131 102 124 325 12 304 298 111 265 271 268 264 224 226 252 254 245 242 232 221 214 211 211 212 214
232 228 229 229 231 229 217 214 222 221 212 198 184 183 172 162 157 119 89 226 197 121 144 165 157 164 158 165 183 175 132 134 138 175 178 185 190 186 203 197 173 176 195 193 205 242 194 183 185 164 173 198 195 230 168 161 180 204 149 88 71 75 78 70 79 77 27 342 247 222 170 243 269 257 230 240 229 240 249 245 245 238 224 214 209 208 209 211
233 226 226 223 222 222 214 213 220 213 193 186 177 171 168 161 141 110 172 220 224 139 132 155 163 162 154 154 183 174 139 94 112 152 166 181 185 178 151 179 158 127 211 311 235 239 317 167 193 148 170 172 144 83 36 154 167 137 96 56 41 22 33 40 39 74 54 276 237 207 193 204 267 272 199 217 227 220 233 248 255 243 219 212 211 208 207 208
235 223 219 221 221 220 214 215 218 205 183 178 172 167 164 156 111 166 200 225 320 177 126 143 173 158 158 157 174 177 143 81 137 149 158 165 173 165 127 160 128 70 307 328 334 316 348 84 241 167 153 127 107 79 22 29 120 114 89 78 59 345 14 22 2 55 143 255 236 214 196 186 234 262 235 245 256 222 203 213 239 236 212 209 210 210 209 208
239 225 217 221 224 222 221 223 219 198 182 174 172 170 161 144 231 217 209 87 358 197 151 164 187 166 170 171 175 175 147 143 170 163 163 159 172 186 180 183 172 149 250 236 245 316 309 238 226 128 167 157 124 92 17 0 40 97 103 107 106 296 354 357 310 115 228 250 255 220 176 192 238 253 257 263 271 264 245 228 229 228 216 209 207 208 208 208
243 231 221 219 223 225 225 227 212 190 182 175 176 178 167 170 201 213 212 186 209 199 139 156 172 164 169 174 182 170 136 147 178 171 165 152 175 208 231 236 192 175 196 190 192 208 267 297 233 133 251 194 165 154 182 261 171 147 137 138 156 178 226 265 244 249 257 259 283 226 152 232 272 265 247 247 258 266 268 264 247 230 221 213 207 206 206 207
242 238 230 223 224 226 226 222 202 186 178 172 174 182 204 207 199 205 215 216 204 96 107 137 142 151 167 177 185 160 142 189 173 158 146 148 173 214 238 251 223 205 98 151 180 180 212 288 203 182 205 185 186 192 170 142 159 178 151 138 155 156 178 222 205 218 254 272 296 290 157 203 219 246 240 242 265 271 268 261 241 224 218 210 203 201 203 206
241 242 236 228 224 223 224 218 199 184 174 169 170 185 198 203 205 209 215 211 184 74 84 120 122 144 183 216 213 172 161 195 170 155 164 172 185 196 196 212 207 185 136 172 216 167 198 263 221 187 155 167 189 195 131 113 145 221 124 117 173 184 181 221 211 193 201 289 282 221 217 219 212 259 259 248 283 308 272 229 207 202 201 195 195 198 202 206
240 239 234 231 228 223 220 212 197 186 176 169 177 211 200 207 213 209 206 187 171 122 107 120 114 138 182 206 228 197 166 121 161 168 199 200 212 203 200 209 194 188 181 178 182 156 181 275 266 136 104 169 191 184 148 154 178 173 136 169 204 182 164 203 268 327 63 278 258 199 244 283 299 276 253 218 235 300 294 230 197 194 191 190 196 200 204 207
238 233 224 224 227 224 218 207 193 183 178 173 194 208 196 222 230 224 192 156 156 140 131 163 178 157 173 188 207 199 174 110 165 179 189 196 232 209 204 215 191 196 202 187 189 188 163 252 295 104 128 234 188 129 134 135 135 132 184 201 156 66 104 127 263 344 27 264 266 206 232 258 253 266 270 163 207 257 260 236 214 203 194 196 202 204 208 209
241 230 221 220 223 222 216 206 188 181 181 180 208 209 198 223 231 226 209 178 144 145 164 203 190 165 176 187 191 188 180 163 175 184 179 193 241 202 186 199 196 198 204 196 211 243 155 196 293 60 171 256 45 110 111 52 108 136 183 186 130 112 199 128 169 232 192 253 280 239 227 228 210 227 256 162 209 232 238 226 223 216 205 206 207 206 209 209
241 229 225 224 220 218 217 204 185 181 184 185 199 207 208 220 227 223 214 217 158 160 194 210 196 180 182 181 172 178 189 183 171 177 186 192 231 200 182 188 197 195 195 190 196 231 155 189 262 326 226 253 25 122 160 186 237 58 90 160 130 136 172 168 180 171 158 228 273 278 241 218 210 204 192 202 212 216 221 214 215 220 214 211 208 207 209 210
237 225 236 230 218 216 212 198 186 183 186 193 197 205 207 216 227 220 214 220 210 189 210 207 188 187 188 179 168 172 192 193 173 182 205 193 206 223 189 181 175 183 186 188 192 172 125 199 224 295 322 182 174 195 188 186 183 151 151 179 186 119 119 178 221 150 141 189 234 276 276 244 207 197 192 204 212 211 212 210 217 223 219 215 212 211 212 212
237 226 244 233 222 214 202 190 187 194 193 199 206 213 212 218 232 214 211 219 229 241 239 210 184 191 186 179 180 175 177 187 185 191 220 203 203 242 197 178 162 159 171 187 203 190 175 191 170 161 228 202 219 239 217 197 186 174 180 185 181 168 133 173 254 213 149 202 196 230 278 264 220 198 198 199 206 212 212 209 217 223 220 218 216 214 216 217
233 239 240 229 220 204 192 184 197 197 192 209 211 215 213 223 234 204 207 215 228 254 261 243 201 195 186 177 183 175 164 176 191 196 221 215 207 213 194 182 169 160 161 181 200 189 153 122 134 173 205 213 242 275 284 195 159 145 177 179 173 183 166 175 232 224 168 246 213 148 282 273 227 165 205 209 215 225 224 217 218 225 223 220 217 215 218 221
226 248 246 233 217 198 188 188 206 187 211 226 217 226 228 212 213 204 201 207 217 239 249 254 235 213 208 181 171 173 173 183 195 198 212 218 215 217 194 180 170 163 164 175 188 169 123 125 151 219 284 300 312 331 4 35 73 98 199 182 181 204 193 184 208 175 177 241 186 131 267 263 257 244 263 267 249 246 243 228 223 228 226 221 218 216 217 220
222 239 239 224 208 196 188 196 191 184 227 219 216 234 238 242 223 202 203 200 204 220 228 237 242 233 224 196 181 182 181 194 209 203 206 207 210 215 196 182 174 171 178 178 167 165 171 171 142 141 297 312 324 334 351 360 100 196 221 201 201 207 184 171 128 127 245 235 164 176 256 249 320 329 325 344 311 277 262 235 228 231 229 222 219 217 217 217
215 231 234 216 201 191 189 201 190 183 206 200 204 219 226 248 236 211 214 208 206 213 221 231 232 234 232 199 195 186 186 205 220 200 204 212 206 207 195 188 182 180 193 188 172 166 170 170 155 172 220 234 234 222 190 179 182 210 219 193 204 207 189 192 211 203 239 227 150 203 248 254 339 329 295 316 320 290 269 234 226 229 230 227 221 217 216 214
196 211 228 215 207 201 200 199 191 183 191 188 195 207 214 231 229 216 216 213 214 216 222 235 225 221 252 218 214 210 200 214 219 181 192 203 212 235 191 190 188 188 192 184 169 160 138 175 183 192 213 227 241 234 170 150 157 198 212 195 198 208 196 193 222 223 221 170 193 227 239 262 270 243 239 267 246 242 261 243 227 226 226 227 224 219 217 214
200 188 191 192 212 221 214 196 185 185 192 187 182 191 205 217 222 216 208 210 217 213 218 235 221 214 231 222 224 231 220 221 207 192 199 193 206 321 193 190 192 192 186 170 166 155 85 193 199 207 217 227 243 234 175 163 181 196 203 199 199 203 194 196 218 221 176 127 248 241 198 244 258 231 207 246 236 225 248 237 230 227 222 225 224 219 216 213
218 205 204 198 197 218 221 199 185 186 192 193 192 193 203 211 213 208 203 211 218 210 209 226 220 220 224 218 222 230 227 234 223 214 212 180 159 73 128 164 196 194 179 164 171 159 120 205 206 210 223 234 244 234 183 176 197 199 198 201 199 195 196 206 217 218 176 178 250 251 189 227 254 231 195 226 216 212 228 229 230 228 223 223 219 214 213 211
230 243 223 211 209 193 195 202 197 196 194 189 193 206 204 206 210 210 203 199 213 213 206 214 219 219 220 218 218 221 219 221 228 228 210 173 166 154 151 109 263 187 145 153 182 162 159 211 198 194 221 239 243 235 187 178 202 207 201 204 202 201 205 210 215 217 208 217 244 252 240 249 257 206 192 225 220 222 231 230 227 224 221 219 213 213 215 211
227 237 247 235 235 211 173 179 195 210 202 188 193 205 203 206 211 211 203 191 199 205 204 218 228 219 214 216 213 221 221 211 222 230 203 165 177 173 172 182 168 153 114 144 193 244 197 218 138 152 214 246 244 234 184 182 209 225 222 218 216 214 212 211 214 216 219 230 243 250 259 265 257 165 197 231 221 221 229 223 221 222 220 215 211 214 216 213
233 226 239 279 269 218 195 162 159 208 214 193 198 199 199 211 212 205 206 208 210 205 197 214 227 221 215 219 214 223 227 217 224 236 201 180 200 198 197 184 153 147 153 162 155 144 194 223 74 123 210 247 243 212 170 185 212 244 249 237 227 221 210 203 213 215 214 226 241 247 254 259 251 160 202 225 198 205 220 216 220 224 220 215 213 216 218 216
242 235 238 256 289 231 220 174 158 197 216 194 208 209 207 218 212 199 206 216 219 222 211 213 222 220 216 224 222 228 233 227 233 239 196 192 202 193 190 177 160 159 165 161 153 157 170 181 172 155 210 251 246 165 147 160 176 237 245 240 233 225 210 208 219 224 217 217 231 234 238 250 250 161 201 221 193 204 219 219 222 225 221 219 220 222 222 219
Height
1529 1530 1530 1531 1532 1532 1533 1533 1534 1534 1535 1536 1536 1537 1538 1538 1539 1540 1541 1542 1542 1543 1543 1543 1543 1544 1544 1544 1544 1544 1544 1543 1543 1543 1543 1543 1543 1543 1544 1545 1545 1545 1545 1545 1545 1545 1544 1544 1544 1545 1544 1544 1544 1544 1545 1545 1545 1546 1549 1554 1557 1559 1559 1556 1554 1554 1554 1556 1557 1558 1558 1559 1560 1561 1561 1562 1563 1563 1564 1565 1565 1566 1566 1567 1568 1569 1569 1570
1528 1529 1530 1531 1532 1532 1533 1533 1534 1534 1535 1535 1536 1537 1537 1538 1539 1540 1541 1541 1542 1542 1543 1543 1543 1543 1543 1543 1543 1543 1543 1543 1543 1543 1543 1543 1543 1543 1544 1545 1545 1545 1545 1545 1545 1544 1544 1544 1545 1545 1545 1545 1545 1545 1545 1545 1546 1547 1551 1555 1558 1558 1557 1555 1554 1553 1553 1555 1556 1557 1558 1558 1559 1560 1560 1561 1562 1563 1564 1565 1566 1566 1566 1566 1567 1568 1568 1569
1528 1529 1530 1530 1531 1532 1532 1533 1533 1534 1534 1535 1536 1536 1537 1538 1539 1540 1540 1541 1541 1542 1542 1542 1543 1543 1543 1543 1543 1543 1543 1543 1542 1543 1542 1542 1542 1543 1544 1545 1545 1546 1545 1545 1545 1545 1544 1545 1545 1545 1545 1545 1545 1545 1545 1546 1547 1548 1551 1556 1557 1555 1555 1555 1554 1553 1553 1554 1555 1557 1558 1558 1559 1560 1560 1561 1562 1563 1563 1564 1564 1564 1564 1565 1566 1566 1567 1568
1527 1528 1529 1530 1531 1531 1532 1533 1533 1534 1534 1535 1536 1536 1537 1538 1539 1539 1540 1541 1541 1541 1542 1542 1542 1542 1542 1542 1542 1542 1542 1542 1542 1542 1542 1542 1542 1543 1544 1545 1545 1546 1545 1545 1545 1545 1545 1545 1545 1545 1545 1545 1546 1546 1546 1547 1548 1548 1551 1554 1554 1553 1554 1555 1554 1554 1554 1554 1555 1556 1557 1558 1559 1559 1560 1560 1561 1562 1561 1561 1561 1562 1562 1563 1564 1565 1566 1566
1527 1528 1529 1529 1530 1530 1531 1532 1532 1533 1534 1535 1535 1536 1537 1537 1538 1539 1539 1540 1540 1541 1541 1541 1542 1542 1542 1542 1542 1542 1542 1543 1542 1542 1542 1542 1543 1544 1544 1545 1545 1546 1546 1546 1545 1545 1545 1545 1545 1545 1545 1546 1546 1547 1547 1547 1548 1549 1551 1552 1552 1552 1554 1555 1554 1555 1555 1555 1555 1556 1557 1558 1558 1559 1559 1559 1560 1560 1559 1559 1560 1561 1562 1562 1563 1564 1565 1566
1526 1527 1528 1529 1529 1530 1531 1531 1532 1533 1533 1534 1535 1536 1536 1537 1538 1538 1539 1539 1540 1540 1540 1541 1541 1542 1542 1542 1542 1541 1541 1543 1542 1542 1542 1543 1543 1544 1544 1545 1545 1546 1546 1546 1546 1545 1545 1545 1545 1545 1546 1546 1547 1547 1548 1548 1548 1551 1552 1551 1551 1552 1553 1554 1554 1554 1554 1555 1555 1556 1556 1557 1557 1558 1558 1558 1558 1558 1558 1558 1559 1561 1561 1562 1562 1563 1564 1565
1526 1527 1528 1528 1529 1530 1530 1531 1531 1532 1533 1534 1534 1535 1536 1537 1537 1538 1538 1539 1539 1539 1540 1540 1541 1541 1542 1541 1541 1541 1540 1541 1541 1542 1542 1543 1544 1544 1545 1545 1545 1546 1546 1546 1545 1545 1545 1545 1545 1545 1546 1547 1548 1548 1548 1549 1549 1551 1553 1552 1552 1552 1552 1553 1553 1554 1554 1554 1555 1555 1556 1556 1557 1557 1557 1556 1557 1557 1558 1558 1559 1560 1561 1561 1562 1562 1563 1563
1526 1526 1527 1528 1528 1529 1530 1530 1531 1532 1532 1533 1534 1534 1535 1536 1537 1537 1538 1538 1538 1539 1539 1540 1541 1541 1541 1541 1540 1540 1540 1540 1541 1541 1542 1543 1544 1544 1545 1545 1545 1546 1546 1546 1545 1545 1545 1545 1545 1545 1546 1547 1548 1548 1548 1549 1550 1551 1553 1552 1552 1552 1552 1553 1553 1553 1554 1554 1554 1555 1555 1555 1556 1556 1555 1555 1555 1556 1557 1558 1558 1559 1559 1560 1560 1561 1561 1562
1525 1526 1527 1527 1528 1529 1529 1530 1530 1531 1531 1532 1533 1534 1534 1535 1536 1536 1537 1537 1538 1538 1539 1539 1540 1540 1540 1540 1540 1539 1539 1540 1540 1541 1542 1543 1543 1544 1545 1545 1545 1546 1546 1545 1545 1545 1545 1545 1545 1545 1546 1547 1548 1548 1548 1550 1552 1552 1552 1552 1552 1552 1552 1552 1552 1552 1553 1553 1553 1554 1554 1554 1554 1555 1553 1552 1554 1555 1556 1556 1557 1557 1558 1558 1559 1559 1560 1561
1524 1525 1526 1527 1527 1528 1529 1529 1530 1530 1531 1531 1532 1533 1533 1534 1535 1536 1536 1537 1537 1538 1539 1539 1539 1539 1539 1539 1539 1539 1539 1540 1541 1541 1542 1542 1543 1543 1544 1545 1545 1545 1545 1545 1545 1545 1545 1545 1545 1545 1546 1547 1547 1549 1549 1550 1552 1552 1552 1552 1551 1551 1551 1551 1551 1551 1552 1552 1552 1553 1553 1553 1554 1555 1552 1550 1551 1553 1554 1555 1555 1556 1556 1557 1557 1558 1559 1559
1523 1524 1525 1526 1527 1527 1528 1529 1529 1530 1530 1531 1531 1532 1532 1533 1534 1535 1535 1536 1537 1537 1538 1538 1538 1538 1538 1539 1538 1538 1539 1540 1540 1541 1542 1542 1542 1543 1544 1544 1545 1545 1545 1545 1545 1546 1546 1546 1546 1545 1546 1547 1548 1549 1549 1550 1551 1551 1551 1551 1551 1550 1550 1550 1550 1550 1551 1552 1551 1552 1553 1553 1554 1553 1548 1547 1550 1551 1552 1553 1554 1554 1555 1555 1556 1557 1557 1558
1522 1523 1524 1525 1526 1527 1527 1528 1529 1529 1530 1530 1531 1531 1532 1533 1533 1534 1534 1535 1536 1536 1537 1537 1537 1538 1538 1538 1537 1538 1538 1539 1540 1541 1541 1541 1542 1543 1543 1544 1544 1545 1545 1545 1546 1546 1546 1546 1546 1546 1546 1547 1548 1549 1550 1550 1551 1551 1551 1552 1551 1550 1549 1548 1547 1548 1549 1551 1551 1552 1554 1553 1552 1549 1546 1547 1548 1549 1551 1551 1552 1552 1553 1554 1554 1555 1556 1556
1521 1522 1523 1524 1524 1525 1526 1527 1528 1528 1529 1530 1530 1531 1531 1532 1533 1533 1534 1534 1535 1535 1536 1536 1536 1537 1537 1537 1536 1537 1537 1538 1539 1540 1540 1541 1542 1542 1543 1544 1544 1545 1545 1545 1546 1545 1546 1546 1546 1546 1546 1547 1548 1550 1550 1550 1551 1551 1551 1553 1553 1553 1550 1545 1545 1547 1549 1551 1550 1552 1556 1552 1547 1546 1545 1546 1547 1548 1549 1550 1550 1551 1551 1552 1552 1553 1553 1554
1520 1521 1521 1522 1523 1524 1525 1525 1526 1527 1528 1529 1530 1530 1531 1531 1532 1532 1533 1533 1534 1534 1534 1535 1535 1535 1536 1535 1535 1536 1536 1537 1538 1538 1539 1540 1541 1542 1542 1543 1544 1544 1544 1545 1545 1545 1546 1546 1546 1546 1547 1548 1548 1549 1550 1550 1551 1551 1552 1554 1555 1558 1552 1544 1545 1546 1548 1551 1549 1552 1558 1551 1544 1545 1545 1546 1546 1547 1547 1548 1549 1549 1549 1550 1550 1551 1551 1552
1518 1519 1520 1521 1522 1523 1524 1524 1525 1526 1527 1528 1529 1529 1530 1530 1531 1531 1532 1532 1532 1533 1533 1534 1534 1534 1534 1534 1534 1534 1535 1535 1536 1537 1538 1539 1540 1541 1541 1542 1543 1543 1544 1544 1545 1545 1545 1546 1546 1546 1547 1548 1548 1550 1551 1552 1551 1551 1555 1557 1558 1559 1553 1545 1545 1545 1547 1550 1549 1552 1557 1550 1543 1543 1544 1545 1546 1546 1546 1546 1547 1547 1547 1548 1548 1549 1549 1550
1517 1518 1519 1520 1521 1522 1522 1523 1524 1525 1526 1527 1528 1528 1529 1529 1530 1530 1531 1531 1532 1532 1532 1533 1533 1533 1534 1533 1533 1533 1533 1534 1534 1536 1537 1537 1538 1540 1540 1541 1542 1542 1543 1544 1544 1545 1545 1545 1546 1547 1547 1548 1549 1551 1553 1556 1555 1554 1556 1558 1557 1558 1555 1550 1547 1546 1546 1549 1550 1551 1552 1548 1543 1542 1543 1545 1545 1545 1545 1545 1545 1545 1545 1545 1545 1546 1547 1547
1515 1516 1517 1518 1519 1520 1521 1522 1523 1524 1525 1525 1526 1527 1528 1528 1529 1529 1530 1530 1530 1531 1531 1532 1532 1533 1532 1531 1531 1531 1531 1532 1533 1534 1535 1536 1537 1538 1540 1540 1541 1542 1542 1543 1544 1544 1545 1546 1546 1547 1548 1548 1549 1552 1557 1561 1558 1556 1556 1557 1556 1555 1556 1553 1548 1546 1547 1548 1549 1550 1550 1546 1542 1542 1543 1543 1544 1544 1544 1543 1542 1542 1542 1542 1543 1543 1544 1544
1513 1514 1515 1517 1517 1519 1520 1521 1522 1523 1523 1524 1525 1525 1526 1527 1527 1528 1528 1529 1529 1530 1531 1531 1531 1533 1531 1528 1528 1528 1529 1531 1532 1533 1534 1535 1536 1537 1539 1539 1540 1541 1542 1543 1543 1544 1545 1546 1546 1548 1549 1550 1550 1553 1558 1558 1553 1553 1555 1557 1556 1554 1553 1553 1549 1546 1546 1548 1548 1550 1551 1546 1542 1542 1542 1541 1542 1542 1541 1540 1540 1539 1539 1539 1540 1540 1541 1541
1511 1512 1513 1515 1516 1517 1518 1519 1521 1521 1522 1522 1523 1524 1525 1525 1526 1526 1527 1527 1528 1528 1528 1527 1527 1529 1527 1524 1525 1527 1528 1530 1531 1532 1533 1534 1535 1536 1537 1538 1540 1540 1541 1543 1543 1543 1544 1546 1548 1551 1551 1550 1549 1550 1550 1548 1547 1550 1551 1552 1554 1553 1551 1549 1546 1544 1544 1547 1548 1549 1548 1544 1541 1540 1540 1539 1540 1540 1539 1539 1539 1538 1537 1537 1537 1537 1537 1538
1509 1510 1511 1512 1514 1515 1516 1518 1519 1519 1520 1521 1521 1523 1524 1524 1525 1525 1525 1524 1523 1523 1523 1522 1523 1524 1524 1523 1524 1525 1527 1528 1529 1530 1531 1533 1534 1535 1537 1538 1539 1540 1541 1542 1543 1543 1544 1548 1550 1548 1547 1546 1546 1546 1544 1544 1546 1548 1549 1551 1552 1553 1551 1546 1544 1543 1543 1547 1547 1545 1545 1543 1540 1538 1537 1537 1538 1538 1538 1537 1536 1535 1534 1534 1534 1534 1534 1535
1507 1508 1509 1510 1512 1513 1514 1516 1517 1518 1518 1519 1520 1521 1522 1522 1523 1523 1522 1521 1520 1520 1520 1520 1522 1522 1522 1523 1524 1524 1525 1527 1528 1529 1530 1532 1533 1535 1536 1538 1539 1541 1541 1541 1542 1543 1544 1548 1548 1544 1541 1543 1543 1543 1544 1545 1546 1547 1549 1551 1551 1552 1550 1545 1543 1543 1543 1546 1545 1543 1545 1542 1538 1536 1534 1535 1537 1535 1533 1532 1531 1530 1531 1531 1531 1532 1532 1533
1506 1506 1507 1508 1509 1511 1512 1513 1515 1515 1516 1517 1518 1519 1520 1521 1521 1521 1521 1519 1517 1517 1517 1518 1520 1520 1521 1522 1523 1523 1524 1525 1527 1528 1529 1530 1532 1533 1535 1537 1539 1539 1539 1541 1543 1545 1547 1548 1545 1540 1540 1542 1542 1542 1544 1545 1545 1547 1549 1551 1552 1551 1549 1546 1544 1543 1544 1546 1545 1543 1543 1540 1535 1534 1532 1531 1531 1528 1526 1525 1524 1525 1527 1527 1528 1529 1530 1530
1504 1504 1505 1506 1507 1509 1510 1511 1513 1513 1514 1515 1516 1518 1519 1520 1520 1521 1521 1519 1516 1514 1514 1514 1515 1516 1518 1519 1520 1521 1521 1522 1524 1525 1527 1529 1530 1531 1533 1535 1537 1538 1539 1541 1543 1546 1548 1544 1538 1537 1540 1541 1542 1542 1543 1544 1545 1546 1547 1551 1552 1550 1551 1550 1546 1544 1544 1545 1544 1543 1542 1539 1533 1531 1529 1526 1524 1522 1521 1521 1521 1523 1523 1522 1523 1524 1524 1525
1501 1502 1503 1503 1505 1506 1507 1510 1510 1510 1512 1513 1515 1516 1517 1518 1520 1520 1521 1519 1515 1510 1510 1511 1511 1511 1512 1515 1517 1518 1519 1519 1520 1521 1524 1526 1527 1530 1531 1532 1535 1538 1538 1538 1539 1542 1540 1536 1533 1535 1538 1540 1541 1541 1541 1543 1545 1545 1545 1548 1549 1548 1548 1548 1547 1546 1545 1545 1543 1544 1543 1536 1530 1529 1524 1520 1520 1520 1519 1519 1519 1520 1520 1520 1520 1520 1520 1520
1498 1500 1501 1501 1503 1503 1506 1507 1505 1508 1511 1511 1514 1515 1517 1518 1519 1521 1521 1520 1515 1508 1506 1507 1507 1507 1508 1512 1514 1515 1517 1517 1516 1518 1520 1522 1524 1527 1529 1530 1532 1536 1536 1536 1538 1539 1535 1532 1532 1534 1537 1539 1541 1541 1540 1541 1545 1546 1543 1543 1544 1545 1545 1546 1547 1548 1550 1550 1545 1546 1549 1536 1525 1527 1523 1518 1520 1518 1516 1516 1515 1515 1516 1517 1516 1516 1517 1518
1496 1498 1498 1500 1501 1501 1504 1503 1503 1508 1508 1510 1513 1515 1518 1518 1519 1521 1520 1524 1518 1504 1503 1504 1503 1502 1503 1507 1511 1515 1518 1514 1512 1516 1517 1520 1522 1523 1527 1528 1529 1531 1533 1534 1536 1534 1530 1530 1531 1533 1535 1537 1539 1540 1538 1539 1545 1549 1544 1540 1542 1542 1544 1546 1547 1549 1553 1553 1547 1547 1554 1544 1526 1522 1521 1518 1518 1515 1513 1513 1511 1510 1511 1510 1510 1511 1513 1515
1493 1495 1496 1497 1498 1499 1500 1499 1503 1506 1505 1509 1511 1514 1517 1517 1520 1519 1521 1533 1519 1495 1496 1500 1498 1497 1498 1502 1506 1513 1516 1509 1509 1515 1514 1518 1520 1520 1524 1525 1526 1528 1528 1531 1536 1531 1526 1528 1531 1532 1534 1536 1538 1539 1537 1537 1544 1547 1542 1540 1541 1541 1545 1546 1546 1550 1551 1551 1550 1547 1552 1552 1534 1519 1516 1515 1516 1513 1510 1510 1507 1506 1506 1505 1507 1508 1509 1511
1489 1492 1493 1494 1496 1496 1497 1498 1500 1501 1504 1509 1510 1514 1516 1516 1521 1518 1525 1537 1511 1484 1490 1494 1493 1495 1496 1500 1503 1506 1507 1503 1507 1512 1512 1515 1518 1518 1520 1521 1522 1524 1523 1528 1534 1529 1524 1527 1528 1529 1532 1535 1535 1535 1534 1535 1540 1542 1540 1540 1541 1541 1544 1545 1546 1551 1552 1554 1557 1550 1551 1554 1535 1516 1514 1513 1514 1513 1507 1505 1503 1501 1502 1503 1505 1506 1507 1510
1486 1489 1490 1492 1494 1494 1496 1497 1497 1499 1505 1508 1510 1513 1514 1517 1519 1517 1530 1530 1496 1479 1489 1490 1492 1495 1495 1500 1502 1502 1503 1503 1505 1509 1511 1514 1515 1516 1518 1519 1520 1523 1523 1524 1527 1526 1525 1526 1525 1526 1529 1531 1532 1533 1533 1534 1536 1539 1539 1540 1541 1543 1544 1547 1549 1551 1555 1558 1557 1551 1551 1552 1531 1512 1512 1513 1511 1510 1503 1500 1499 1497 1499 1501 1503 1505 1506 1508
1483 1485 1487 1490 1490 1491 1493 1493 1494 1499 1503 1506 1509 1511 1513 1517 1517 1523 1536 1518 1485 1481 1489 1487 1490 1493 1493 1499 1503 1502 1503 1504 1505 1507 1512 1513 1514 1516 1516 1518 1521 1522 1524 1524 1525 1526 1525 1525 1525 1525 1526 1527 1530 1534 1534 1534 1534 1536 1540 1541 1544 1547 1547 1550 1552 1553 1560 1559 1551 1545 1544 1548 1538 1516 1507 1506 1502 1501 1499 1498 1497 1495 1497 1499 1501 1503 1503 1505
1479 1481 1483 1485 1484 1486 1488 1488 1491 1497 1501 1503 1507 1509 1513 1516 1516 1524 1524 1499 1480 1483 1486 1488 1491 1490 1491 1495 1499 1502 1503 1505 1506 1507 1511 1513 1514 1516 1517 1520 1522 1526 1528 1527 1527 1528 1527 1527 1526 1525 1525 1526 1529 1533 1534 1535 1534 1536 1539 1542 1547 1551 1552 1556 1558 1560 1565 1555 1541 1538 1539 1547 1543 1519 1503 1499 1495 1495 1496 1495 1495 1494 1494 1495 1497 1499 1500 1502
1475 1477 1478 1479 1481 1483 1483 1483 1489 1496 1499 1501 1505 1507 1510 1517 1520 1515 1502 1487 1482 1480 1479 1485 1488 1488 1491 1491 1493 1497 1499 1504 1505 1505 1507 1510 1513 1513 1512 1514 1517 1525 1531 1528 1529 1530 1528 1527 1525 1525 1525 1525 1527 1533 1538 1538 1537 1537 1540 1545 1552 1558 1560 1562 1563 1564 1564 1551 1538 1537 1541 1543 1533 1511 1501 1498 1494 1493 1493 1492 1492 1492 1492 1493 1494 1496 1497 1500
1471 1472 1474 1474 1476 1477 1478 1483 1489 1493 1495 1498 1504 1506 1507 1513 1513 1501 1489 1482 1478 1474 1474 1479 1482 1484 1489 1491 1493 1494 1497 1501 1503 1504 1505 1508 1512 1511 1509 1509 1510 1514 1519 1524 1530 1532 1530 1528 1526 1526 1525 1522 1522 1529 1535 1537 1537 1537 1538 1542 1552 1561 1567 1565 1563 1561 1555 1544 1538 1540 1543 1538 1522 1504 1497 1494 1491 1490 1489 1490 1490 1489 1490 1490 1491 1493 1495 1497
1467 1469 1469 1469 1470 1473 1476 1482 1487 1489 1492 1495 1501 1506 1507 1504 1495 1486 1482 1475 1471 1472 1475 1476 1480 1486 1488 1489 1491 1491 1496 1502 1502 1503 1506 1508 1513 1513 1511 1511 1509 1509 1513 1522 1528 1529 1530 1526 1521 1520 1519 1517 1517 1518 1522 1527 1534 1535 1533 1536 1543 1549 1553 1553 1552 1550 1544 1540 1541 1544 1539 1528 1513 1499 1492 1491 1491 1490 1489 1489 1489 1488 1489 1489 1490 1492 1493 1495
1464 1464 1465 1466 1467 1469 1473 1478 1483 1487 1490 1492 1496 1501 1501 1492 1481 1476 1474 1468 1469 1474 1475 1477 1482 1488 1490 1490 1490 1488 1493 1500 1502 1504 1506 1506 1508 1508 1506 1505 1505 1507 1510 1518 1522 1524 1527 1519 1510 1511 1511 1511 1514 1514 1516 1524 1533 1535 1533 1537 1539 1535 1534 1538 1543 1542 1541 1542 1543 1540 1529 1513 1502 1493 1490 1493 1492 1490 1490 1488 1488 1488 1488 1489 1489 1490 1491 1492
1460 1460 1461 1461 1461 1464 1468 1473 1479 1482 1484 1489 1494 1493 1488 1478 1466 1463 1461 1460 1466 1472 1477 1482 1483 1488 1493 1492 1491 1490 1489 1494 1500 1504 1505 1505 1503 1501 1499 1496 1497 1501 1500 1505 1512 1517 1522 1518 1511 1512 1513 1512 1514 1514 1516 1520 1527 1534 1535 1535 1532 1528 1528 1535 1542 1542 1542 1543 1535 1528 1519 1508 1501 1491 1485 1490 1491 1490 1491 1488 1487 1488 1487 1488 1488 1488 1489 1489
1455 1455 1455 1453 1453 1458 1463 1468 1474 1478 1480 1484 1486 1482 1478 1470 1459 1457 1457 1457 1462 1467 1474 1481 1481 1484 1490 1491 1491 1490 1489 1492 1498 1501 1502 1505 1499 1492 1493 1493 1492 1494 1491 1494 1501 1503 1508 1514 1514 1514 1515 1515 1515 1515 1517 1517 1520 1529 1533 1529 1527 1530 1531 1535 1543 1544 1545 1544 1531 1520 1513 1507 1504 1494 1483 1488 1492 1489 1489 1488 1488 1488 1487 1487 1485 1485 1486 1487
1451 1452 1449 1446 1449 1454 1459 1464 1468 1473 1476 1479 1479 1476 1474 1468 1456 1453 1455 1456 1459 1463 1468 1474 1474 1475 1481 1486 1487 1487 1487 1489 1495 1498 1499 1501 1492 1480 1484 1489 1487 1487 1487 1491 1497 1496 1499 1508 1516 1517 1516 1516 1515 1516 1520 1520 1519 1522 1523 1522 1525 1533 1535 1537 1542 1542 1543 1542 1528 1516 1511 1504 1499 1492 1483 1487 1489 1485 1484 1487 1488 1486 1484 1483 1482 1483 1485 1485
1449 1449 1443 1440 1445 1450 1455 1459 1462 1466 1468 1470 1474 1472 1465 1456 1447 1448 1454 1456 1458 1460 1462 1462 1465 1469 1473 1476 1480 1483 1485 1484 1490 1494 1491 1492 1486 1473 1474 1479 1480 1483 1486 1490 1494 1494 1496 1503 1513 1518 1517 1517 1516 1518 1522 1523 1521 1521 1522 1522 1522 1526 1529 1531 1534 1533 1534 1535 1525 1514 1508 1496 1487 1482 1478 1479 1480 1478 1480 1483 1483 1481 1478 1478 1478 1480 1482 1483
1445 1445 1438 1435 1441 1447 1452 1455 1456 1457 1456 1456 1459 1455 1449 1445 1443 1446 1453 1456 1455 1455 1454 1454 1458 1464 1467 1469 1472 1476 1480 1481 1484 1486 1482 1480 1478 1471 1470 1472 1477 1481 1485 1488 1490 1492 1496 1500 1508 1518 1520 1518 1516 1513 1513 1513 1515 1519 1522 1524 1523 1524 1527 1527 1526 1524 1526 1528 1524 1518 1505 1484 1474 1473 1470 1471 1474 1474 1475 1476 1476 1475 1474 1475 1476 1477 1479 1480
1442 1441 1433 1432 1439 1444 1450 1452 1449 1449 1450 1450 1448 1443 1443 1444 1444 1448 1451 1454 1453 1450 1450 1451 1453 1456 1459 1465 1467 1467 1473 1478 1479 1480 1477 1474 1472 1469 1467 1468 1472 1477 1484 1491 1491 1489 1494 1497 1503 1515 1520 1515 1509 1505 1503 1503 1505 1508 1511 1514 1515 1518 1523 1526 1526 1522 1522 1520 1516 1516 1503 1476 1466 1469 1467 1467 1470 1470 1470 1471 1470 1470 1470 1471 1473 1474 1476 1477
1439 1436 1431 1431 1435 1440 1446 1445 1443 1445 1447 1444 1439 1438 1442 1444 1444 1448 1450 1452 1453 1451 1450 1449 1448 1449 1451 1456 1460 1462 1467 1473 1475 1476 1472 1468 1466 1463 1463 1463 1466 1470 1476 1483 1484 1482 1487 1493 1499 1509 1513 1509 1505 1504 1505 1504 1503 1505 1507 1508 1510 1511 1512 1517 1519 1517 1519 1514 1508 1516 1508 1476 1463 1468 1466 1466 1468 1466 1468 1468 1467 1467 1467 1469 1470 1472 1475 1476
1434 1432 1430 1430 1431 1435 1440 1438 1438 1443 1442 1438 1436 1439 1442 1443 1444 1447 1449 1451 1452 1450 1451 1449 1446 1446 1446 1448 1454 1458 1462 1465 1467 1467 1464 1463 1462 1458 1459 1461 1464 1467 1470 1475 1479 1481 1486 1492 1497 1504 1507 1506 1506 1504 1504 1504 1505 1508 1508 1507 1508 1506 1502 1505 1508 1510 1514 1509 1506 1519 1510 1474 1462 1469 1467 1466 1467 1465 1467 1467 1466 1467 1466 1467 1469 1470 1473 1474
1430 1430 1429 1430 1428 1428 1430 1430 1432 1439 1438 1438 1440 1442 1443 1442 1443 1445 1446 1447 1447 1447 1450 1448 1445 1445 1444 1445 1448 1451 1455 1457 1458 1458 1458 1459 1458 1455 1457 1459 1460 1464 1465 1467 1472 1477 1484 1491 1497 1503 1508 1508 1509 1509 1509 1508 1507 1506 1504 1504 1503 1501 1502 1505 1506 1511 1510 1499 1501 1515 1499 1467 1463 1469 1466 1467 1467 1464 1465 1466 1466 1467 1466 1466 1467 1468 1471 1472
1427 1427 1426 1428 1426 1421 1419 1420 1425 1432 1436 1438 1441 1442 1443 1442 1440 1441 1443 1443 1443 1445 1446 1444 1444 1444 1443 1443 1445 1446 1448 1448 1449 1453 1455 1456 1454 1452 1454 1456 1457 1458 1458 1460 1462 1465 1475 1483 1488 1496 1501 1499 1495 1497 1501 1503 1504 1503 1499 1500 1500 1500 1503 1503 1505 1511 1505 1493 1497 1502 1483 1464 1464 1467 1464 1465 1466 1464 1464 1464 1464 1465 1465 1465 1466 1467 1469 1470
1422 1422 1421 1424 1424 1418 1414 1414 1420 1426 1431 1436 1439 1440 1442 1441 1437 1438 1440 1441 1442 1442 1441 1440 1442 1443 1444 1443 1444 1444 1444 1442 1444 1448 1452 1452 1451 1450 1450 1451 1453 1454 1456 1459 1460 1463 1472 1477 1477 1479 1481 1479 1474 1475 1482 1488 1494 1496 1492 1493 1496 1496 1498 1501 1504 1501 1495 1495 1494 1482 1471 1468 1464 1463 1463 1462 1464 1465 1464 1463 1463 1462 1463 1464 1464 1465 1466 1467
1416 1414 1413 1416 1418 1415 1411 1411 1414 1420 1425 1430 1432 1432 1435 1436 1435 1437 1439 1438 1437 1438 1438 1438 1439 1442 1442 1442 1443 1442 1440 1441 1443 1445 1446 1447 1448 1449 1449 1449 1452 1453 1454 1458 1459 1463 1470 1474 1473 1471 1468 1465 1461 1465 1474 1478 1480 1482 1483 1487 1490 1491 1494 1498 1494 1483 1483 1496 1486 1464 1470 1474 1456 1454 1462 1459 1461 1465 1462 1461 1461 1460 1461 1461 1461 1463 1463 1465
1411 1408 1406 1408 1410 1409 1408 1407 1407 1411 1416 1423 1425 1426 1428 1432 1434 1434 1433 1433 1434 1435 1436 1436 1436 1436 1435 1437 1440 1441 1440 1442 1442 1441 1442 1444 1446 1449 1450 1451 1454 1454 1454 1457 1458 1460 1464 1466 1468 1469 1467 1461 1456 1460 1469 1472 1471 1473 1476 1479 1481 1486 1489 1485 1479 1474 1479 1488 1471 1454 1466 1465 1445 1449 1459 1454 1456 1459 1456 1456 1457 1457 1459 1459 1460 1462 1461 1462
1408 1405 1404 1405 1404 1402 1404 1404 1404 1405 1408 1415 1420 1421 1423 1427 1428 1426 1425 1429 1432 1432 1433 1433 1429 1427 1429 1432 1436 1438 1439 1440 1439 1435 1437 1442 1445 1447 1449 1452 1454 1454 1455 1457 1458 1460 1461 1460 1462 1467 1468 1463 1457 1459 1466 1470 1471 1471 1473 1474 1474 1476 1474 1469 1470 1473 1477 1476 1460 1453 1462 1454 1440 1447 1453 1448 1451 1453 1452 1454 1455 1454 1456 1456 1457 1459 1458 1459
1406 1404 1403 1403 1402 1400 1400 1402 1403 1403 1404 1408 1412 1413 1416 1419 1419 1419 1420 1423 1425 1425 1427 1427 1424 1423 1427 1429 1431 1432 1430 1430 1431 1430 1432 1439 1443 1443 1445 1446 1448 1453 1456 1457 1459 1462 1462 1461 1462 1466 1469 1463 1456 1460 1468 1470 1469 1469 1471 1471 1467 1463 1465 1469 1472 1473 1474 1470 1458 1458 1464 1450 1437 1443 1449 1447 1450 1452 1451 1452 1451 1451 1452 1452 1454 1455 1454 1456
1404 1403 1403 1404 1401 1398 1397 1398 1400 1402 1402 1404 1404 1405 1408 1409 1409 1412 1415 1414 1415 1417 1419 1419 1419 1423 1426 1426 1427 1426 1422 1423 1426 1427 1429 1434 1436 1436 1437 1439 1442 1449 1455 1457 1459 1461 1463 1465 1465 1467 1469 1460 1451 1460 1470 1469 1470 1474 1469 1459 1454 1457 1464 1469 1467 1464 1464 1463 1461 1467 1466 1445 1433 1442 1447 1446 1448 1449 1448 1448 1448 1449 1449 1449 1450 1450 1450 1451
1402 1401 1401 1403 1402 1397 1395 1395 1397 1400 1400 1401 1402 1401 1402 1402 1404 1409 1414 1413 1412 1413 1415 1414 1415 1422 1425 1424 1423 1420 1419 1422 1426 1427 1428 1430 1430 1431 1433 1435 1437 1442 1449 1454 1458 1459 1461 1463 1463 1466 1467 1456 1449 1458 1466 1470 1477 1475 1455 1438 1440 1451 1459 1460 1459 1456 1455 1457 1459 1460 1449 1433 1433 1442 1443 1442 1445 1444 1443 1443 1444 1444 1445 1446 1446 1445 1445 1446